sat.trackr.live / text

‹ back to catalog

ONEWEB-0622

NORAD 55163 · 2023-004Z

PAYLOAD ACTIVE UNKNOWN

§ Identity

Operator
Country
UK
Launch date
2023-01-10
Launch site
AFETR
Launch vehicle
Mass (kg)
RCS (m²)

Purposes: comms

External: N2YO · Heavens-Above · Gunter

§ Orbital elements

Epoch: 2026-05-25T03:05:28.974048Z

Period
109.81 min
Inclination
87.8917°
Eccentricity
0.0002109
Mean motion
13.11414083 rev/d
Perigee alt
1,216.1 km
Apogee alt
1,219.3 km
Semi-major
7,595.8 km
B*
9.0917e-4
RAAN
25.6542°
Arg perigee
102.1112°
Mean anomaly
258.0252°
Rev number
16,277

§ Raw data

ONEWEB-06221 55163U 23004Z   26145.12880757  .00000335  00000+0  90917-3 0  99942 55163  87.8917  25.6542 0002109 102.1112 258.0252 13.11414083162779

JSON: /api/v1/satellites/55163 · /tle

For live sub-satellite position, see the globe view (requires WebGL).

§ Visibility from observer

Set your observer location to see the next 7 days of passes ≥ 10°. The values pass through the URL so the page stays shareable.

No JS? Fill the form by hand. The geolocation button needs JavaScript.